TimeMST,TemperatureF,Dew PointF,Humidity,Sea Level PressureIn,VisibilityMPH,Wind Direction,Wind SpeedMPH,Gust SpeedMPH,PrecipitationIn,Events,Conditions,WindDirDegrees,DateUTC
12:15 AM,-9999,-9999,N/A,30.23,10.0,Calm,Calm,-,N/A,,Clear,0,2011-11-29 07:15:00
12:35 AM,-9999,-9999,N/A,30.23,10.0,Calm,Calm,-,N/A,,Clear,0,2011-11-29 07:35:00
12:55 AM,-9999,-9999,N/A,30.23,10.0,South,6.9,-,N/A,,Clear,180,2011-11-29 07:55:00
1:15 AM,-9999,-9999,N/A,30.22,10.0,WSW,9.2,-,N/A,,Clear,240,2011-11-29 08:15:00
1:35 AM,41.0,19.4,42,30.23,10.0,West,10.4,-,N/A,,Clear,260,2011-11-29 08:35:00
1:55 AM,42.8,21.2,42,30.23,10.0,WSW,8.1,23.0,N/A,,Clear,240,2011-11-29 08:55:00
2:15 AM,42.8,19.4,39,30.23,10.0,WSW,8.1,16.1,N/A,,Clear,240,2011-11-29 09:15:00
2:35 AM,42.8,19.4,39,30.23,10.0,WSW,9.2,-,N/A,,Clear,250,2011-11-29 09:35:00
2:55 AM,42.8,21.2,42,30.23,10.0,WSW,13.8,20.7,N/A,,Clear,250,2011-11-29 09:55:00
3:15 AM,42.8,21.2,42,30.23,10.0,WSW,17.3,23.0,N/A,,Clear,250,2011-11-29 10:15:00
3:35 AM,42.8,19.4,39,30.22,10.0,SW,9.2,18.4,N/A,,Clear,230,2011-11-29 10:35:00
3:55 AM,42.8,19.4,39,30.22,10.0,SW,16.1,20.7,N/A,,Clear,230,2011-11-29 10:55:00
4:15 AM,42.8,19.4,39,30.21,10.0,SW,9.2,-,N/A,,Clear,230,2011-11-29 11:15:00
4:35 AM,42.8,19.4,39,30.20,10.0,WSW,11.5,16.1,N/A,,Clear,240,2011-11-29 11:35:00
4:55 AM,41.0,19.4,42,30.20,10.0,SW,9.2,-,N/A,,Unknown,230,2011-11-29 11:55:00
5:15 AM,39.2,19.4,45,30.21,10.0,NW,6.9,-,N/A,,Clear,320,2011-11-29 12:15:00
5:35 AM,-9999,-9999,N/A,30.21,10.0,Calm,Calm,-,N/A,,Clear,0,2011-11-29 12:35:00
5:55 AM,35.6,17.6,48,30.22,10.0,Calm,Calm,-,N/A,,Clear,0,2011-11-29 12:55:00
6:15 AM,37.4,19.4,48,30.22,10.0,West,3.5,-,N/A,,Clear,260,2011-11-29 13:15:00
6:35 AM,-9999,-9999,N/A,30.21,10.0,SSW,6.9,-,N/A,,Clear,210,2011-11-29 13:35:00
6:55 AM,-9999,-9999,N/A,30.20,10.0,SSW,9.2,-,N/A,,Clear,210,2011-11-29 13:55:00
7:15 AM,-9999,-9999,N/A,30.20,10.0,SSW,9.2,-,N/A,,Clear,210,2011-11-29 14:15:00
7:35 AM,-9999,-9999,N/A,30.20,10.0,South,10.4,18.4,N/A,,Clear,190,2011-11-29 14:35:00
7:55 AM,-9999,-9999,N/A,30.20,10.0,South,9.2,-,N/A,,Clear,190,2011-11-29 14:55:00
8:15 AM,-9999,-9999,N/A,30.20,10.0,SSW,13.8,24.2,N/A,,Clear,200,2011-11-29 15:15:00
8:35 AM,-9999,-9999,N/A,30.20,10.0,Calm,Calm,-,N/A,,Clear,0,2011-11-29 15:35:00
8:55 AM,-9999,-9999,N/A,30.21,10.0,NW,3.5,-,N/A,,Clear,320,2011-11-29 15:55:00
9:35 AM,-9999,-9999,N/A,30.21,10.0,Calm,Calm,-,N/A,,Clear,0,2011-11-29 16:35:00
10:15 AM,-9999,-9999,N/A,30.21,10.0,West,9.2,-,N/A,,Clear,270,2011-11-29 17:15:00
10:55 AM,46.4,21.2,37,30.20,10.0,SSW,13.8,23.0,N/A,,Clear,210,2011-11-29 17:55:00
11:35 AM,-9999,-9999,N/A,30.17,10.0,WSW,10.4,-,N/A,,Clear,240,2011-11-29 18:35:00
11:55 AM,-9999,-9999,N/A,30.16,10.0,SW,16.1,-,N/A,,Clear,230,2011-11-29 18:55:00
12:55 PM,-9999,-9999,N/A,30.14,10.0,NNW,6.9,-,N/A,,Clear,330,2011-11-29 19:55:00
1:15 PM,-9999,-9999,N/A,30.14,10.0,North,8.1,-,N/A,,Clear,10,2011-11-29 20:15:00
1:35 PM,-9999,-9999,N/A,30.13,10.0,North,8.1,-,N/A,,Clear,360,2011-11-29 20:35:00
1:55 PM,-9999,-9999,N/A,30.13,10.0,NNE,6.9,-,N/A,,Clear,20,2011-11-29 20:55:00
2:15 PM,-9999,-9999,N/A,30.12,10.0,North,4.6,-,N/A,,Clear,360,2011-11-29 21:15:00
2:35 PM,-9999,-9999,N/A,30.11,10.0,NNE,3.5,-,N/A,,Clear,20,2011-11-29 21:35:00
2:55 PM,-9999,-9999,N/A,30.10,10.0,NE,3.5,-,N/A,,Clear,40,2011-11-29 21:55:00
3:15 PM,-9999,-9999,N/A,30.10,10.0,NW,4.6,-,N/A,,Clear,310,2011-11-29 22:15:00
3:35 PM,-9999,-9999,N/A,30.09,10.0,Calm,Calm,-,N/A,,Clear,0,2011-11-29 22:35:00
4:15 PM,-9999,-9999,N/A,30.08,10.0,Calm,Calm,-,N/A,,Clear,0,2011-11-29 23:15:00
4:35 PM,-9999,-9999,N/A,30.07,10.0,NNW,4.6,-,N/A,,Clear,330,2011-11-29 23:35:00
4:55 PM,-9999,-9999,N/A,30.08,10.0,North,3.5,-,N/A,,Clear,360,2011-11-29 23:55:00
5:15 PM,-9999,-9999,N/A,30.07,10.0,Calm,Calm,-,N/A,,Clear,0,2011-11-30 00:15:00
5:35 PM,-9999,-9999,N/A,30.07,10.0,North,4.6,-,N/A,,Clear,10,2011-11-30 00:35:00
5:55 PM,-9999,-9999,N/A,30.06,10.0,Calm,Calm,-,N/A,,Clear,0,2011-11-30 00:55:00
6:35 PM,-9999,-9999,N/A,30.03,10.0,WSW,12.7,23.0,N/A,,Clear,240,2011-11-30 01:35:00
6:55 PM,-9999,-9999,N/A,30.03,10.0,WSW,11.5,21.9,N/A,,Partly Cloudy,240,2011-11-30 01:55:00
7:15 PM,-9999,-9999,N/A,30.04,10.0,NW,8.1,-,N/A,,Mostly Cloudy,320,2011-11-30 02:15:00
7:35 PM,-9999,-9999,N/A,30.02,10.0,SSW,3.5,-,N/A,,Overcast,210,2011-11-30 02:35:00
7:55 PM,-9999,-9999,N/A,30.02,10.0,West,16.1,24.2,N/A,,Overcast,280,2011-11-30 02:55:00
8:15 PM,-9999,-9999,N/A,30.02,10.0,West,10.4,18.4,N/A,,Overcast,260,2011-11-30 03:15:00
8:35 PM,-9999,-9999,N/A,30.01,10.0,WSW,10.4,17.3,N/A,,Mostly Cloudy,250,2011-11-30 03:35:00
9:15 PM,-9999,-9999,N/A,29.98,10.0,West,8.1,-,N/A,,Scattered Clouds,260,2011-11-30 04:15:00
9:35 PM,-9999,-9999,N/A,29.97,10.0,West,12.7,17.3,N/A,,Overcast,260,2011-11-30 04:35:00
9:55 PM,-9999,-9999,N/A,29.96,10.0,West,6.9,-,N/A,,Mostly Cloudy,260,2011-11-30 04:55:00
10:15 PM,-9999,-9999,N/A,29.96,10.0,West,6.9,-,N/A,,Overcast,270,2011-11-30 05:15:00
10:55 PM,-9999,-9999,N/A,29.95,10.0,West,4.6,-,N/A,,Overcast,270,2011-11-30 05:55:00
11:15 PM,-9999,-9999,N/A,29.93,10.0,WSW,12.7,20.7,N/A,,Overcast,250,2011-11-30 06:15:00
11:35 PM,-9999,-9999,N/A,29.93,10.0,West,10.4,20.7,N/A,,Scattered Clouds,280,2011-11-30 06:35:00